EW8072 Weather Reports


Display with metric or nautical units.
time (UTC)temp
F
wind
direction
speed
MPH
gust
MPH
rain 1hr
in
rain 24hr
in
rain mn
in
humidity
%
barometer
mb
20220818133105 0 0.0 0.0 0.00 0.99 0.00 1047.3
20220818131557 0 0.0 0.0 0.00 0.99 0.00 1047.2
20220818124529 0 0.0 0.0 0.00 0.99 0.00 1046.8
20220818123029 0 0.0 0.0 0.00 0.99 0.00 1046.6
20220818120043 0 0.0 0.0 0.00 0.99 0.00 1046.4
20220818113029 0 0.0 0.0 0.00 0.99 0.00 1046.3
20220818111543 0 0.0 0.0 0.00 0.99 0.00 1046.3
20220818104523 0 0.0 0.0 0.00 0.99 0.00 1046.3
20220818103020 0 0.0 0.0 0.00 0.99 0.00 1046.2
20220818101539 0 0.0 0.0 0.00 0.99 0.00 1046.2
20220818100044 69 298 2.0 4.0 0.00 0.99 0.00 80 1046.2
20220818094551 70 293 2.0 4.0 0.00 0.99 0.00 81 1046.3
20220818093014 71 292 3.0 4.0 0.00 0.99 0.00 79 1046.5
20220818091514 71 300 2.0 3.0 0.00 0.99 0.00 77 1046.7
20220818090010 70 297 2.0 3.0 0.00 0.99 0.00 77 1046.7
20220818084516 70 300 0.0 1.0 0.00 0.99 0.00 78 1046.5
20220818083056 70 300 0.0 3.0 0.00 0.99 0.00 78 1046.5
20220818081546 70 193 0.0 1.0 0.00 0.99 0.00 78 1046.6
20220818080033 70 193 0.0 1.0 0.00 1.00 0.00 79 1046.6
20220818074523 70 193 0.0 0.0 0.00 1.00 0.00 78 1046.8
20220818073140 70 193 0.0 1.0 0.00 1.00 0.00 77 1046.8
20220818073008 70 193 0.0 1.0 0.00 1.00 0.00 78 1046.8
20220818071638 70 193 0.0 1.0 0.00 1.00 0.00 78 1046.9
20220818070125 70 193 0.0 0.0 0.00 1.00 0.00 76 1047.1
20220818064554 71 191 0.0 1.0 0.00 1.00 0.00 74 1047.2
20220818063053 71 322 0.0 1.0 0.00 1.00 0.00 72 1047.3
20220818061541 71 322 0.0 2.0 0.00 1.00 0.00 72 1047.5
20220818060051 71 79 0.0 0.0 0.00 1.00 1.00 72 1047.4
20220818054511 71 81 0.0 2.0 0.00 1.00 1.00 71 1047.4
20220818053041 72 79 0.0 3.0 0.00 1.00 1.00 70 1047.3
20220818051543 71 56 0.0 2.0 0.00 1.00 1.00 73 1047.2
20220818050026 71 78 0.0 1.0 0.00 1.00 1.00 78 1047.1
20220818044542 71 79 0.0 1.0 0.00 1.00 1.00 78 1047.0
20220818043048 71 78 0.0 0.0 0.00 1.00 1.00 79 1046.8
20220818041553 72 77 0.0 0.0 0.00 1.00 1.00 76 1046.6
20220818040051 72 77 0.0 2.0 0.00 1.00 1.00 74 1046.2
20220818034543 72 76 1.0 5.0 0.00 1.00 1.00 73 1046.0
20220818033023 73 22 3.0 5.0 0.00 1.00 1.00 73 1045.9
20220818031604 73 41 4.0 9.0 0.00 1.00 1.00 74 1045.8
20220818031505 73 42 4.0 9.0 0.00 1.00 1.00 74 1045.8
20220818030104 73 54 2.0 4.0 0.00 1.00 1.00 77 1045.8
20220818024612 73 76 1.0 3.0 0.00 1.00 1.00 79 1045.8
20220818023042 72 150 0.0 1.0 0.00 1.00 1.00 86 1045.6
20220818021523 72 150 0.0 0.0 0.00 1.00 1.00 86 1045.6
20220818020027 72 150 0.0 3.0 0.00 1.00 1.00 86 1045.8
20220818014516 72 167 0.0 2.0 0.00 1.00 1.00 85 1045.8
20220818013053 72 284 0.0 3.0 0.00 1.00 1.00 85 1045.8
20220818011606 73 143 3.0 6.0 0.00 1.00 1.00 81 1045.5
20220818010041 73 311 2.0 8.0 0.00 1.00 1.00 83 1045.3
20220818004551 73 297 7.0 11.0 0.00 1.00 1.00 82 1044.8
20220818003019 74 314 5.0 14.0 0.00 1.00 1.00 78 1044.9
20220818001521 75 304 4.0 10.0 0.00 1.00 1.00 77 1045.1
20220818000011 75 310 7.0 12.0 0.00 1.00 1.00 77 1045.4
20220817234519 75 315 5.0 13.0 0.00 1.00 1.00 77 1045.4
20220817233048 75 337 8.0 13.0 0.00 1.00 1.00 77 1045.4
20220817231545 75 323 6.0 13.0 0.00 1.00 1.00 77 1045.1
20220817230047 75 295 7.0 15.0 0.00 1.00 1.00 76 1045.0
20220817224540 75 339 6.0 10.0 0.00 1.00 1.00 76 1045.2
20220817223026 75 319 4.0 9.0 0.00 1.00 1.00 75 1045.4
20220817221511 75 328 6.0 12.0 0.00 1.00 1.00 74 1045.6
20220817220026 75 316 7.0 14.0 0.00 1.00 1.00 75 1045.6
20220817214504 75 25 8.0 14.0 0.00 1.00 1.00 74 1045.5
20220817213050 75 356 6.0 12.0 0.00 1.00 1.00 75 1045.5
20220817211542 75 351 5.0 12.0 0.00 1.00 1.00 76 1045.8
20220817210038 74 337 7.0 13.0 0.00 1.00 1.00 77 1045.8
20220817204542 74 338 5.0 13.0 0.02 1.00 1.00 79 1045.9
20220817203003 73 328 5.0 12.0 0.02 1.00 1.00 80 1046.1
20220817201555 73 283 4.0 7.0 0.02 1.00 1.00 83 1046.2
20220817200053 72 306 5.0 10.0 0.02 1.00 1.00 83 1046.4
20220817194638 71 355 3.0 6.0 0.00 0.98 0.98 83 1046.5
20220817193023 69 299 4.0 6.0 0.00 0.98 0.98 88 1046.5
20220817191521 69 304 2.0 5.0 0.05 0.98 0.98 90 1046.5
20220817190020 68 307 2.0 5.0 0.22 0.98 0.98 92 1046.4
20220817184511 68 302 1.0 3.0 0.36 0.98 0.98 93 1046.4
20220817183054 67 300 1.0 3.0 0.38 0.98 0.98 93 1046.4
20220817181543 67 333 0.0 1.0 0.40 0.93 0.93 93 1046.6
20220817180040 67 308 0.0 2.0 0.27 0.76 0.76 92 1046.5
20220817174533 67 295 0.0 2.0 0.18 0.62 0.62 91 1046.5
20220817171527 67 66 4.0 11.0 0.21 0.53 0.53 89 1046.4
20220817170030 68 15 1.0 3.0 0.21 0.49 0.49 92 1046.3
20220817164525 68 335 2.0 4.0 0.20 0.44 0.44 92 1046.2
20220817161547 67 77 0.0 2.0 0.24 0.32 0.33 91 1046.1
20220817160039 67 50 0.0 1.0 0.24 0.28 0.28 91 1045.9
20220817154535 67 50 1.0 3.0 0.23 0.24 0.24 91 1045.8
20220817153009 67 6 2.0 8.0 0.16 0.17 0.17 91 1045.9
20220817151638 68 52 2.0 5.0 0.07 0.08 0.09 91 1045.9
20220817151502 68 66 2.0 5.0 0.07 0.08 0.08 91 1046.0
20220817150049 68 54 3.0 5.0 0.03 0.04 0.04 90 1046.0
20220817144529 0 0.0 0.0 0.00 0.01 0.01 1045.9
20220817143038 0 0.0 0.0 0.00 0.01 0.01 1045.7
20220817141622 0 0.0 0.0 0.00 0.01 0.01 1045.6
20220817140039 0 0.0 0.0 0.00 0.01 0.01 1045.4